Location: Centerville
(32.8776°N, 96.6203°W)
Time: 23:09:39
(UTC+00:00)

Cosmos 1833 Rocket - Pass Details

Date: 17 June 2021
Orbit: 832 x 840 km, 71.0° (Epoch: 01 August)

Event Time Altitude Azimuth Distance (km) Brightness Sun altitude
Exits shadow 10:14:37 - 196° (SSW) 2,510 4.7 -11.9°
Reaches altitude 10° 10:14:48 10° 196° (SSW) 2,440 4.6 -11.9°
Maximum altitude 10:20:25 82° 109° (ESE) 849 2.8 -11.0°
Drops below altitude 10° 10:26:03 10° 22° (NNE) 2,458 6.1 -10.0°
Sets 10:28:30 0° 22° (NNE) 3,396 6.9 -9.6°
